This is the latest recevied weather packets stored in our database for station/object K0PFX-8. If no packets are shown the sender has not sent any weather packets the latest 10 day(s).
| Time | Temp. | Humidity | Pressure | Rain* | Wind** | Luminosity | Snow |
|---|---|---|---|---|---|---|---|
| 1777526518 | 8.89° C | 90% | 1020 hPa | 0 mm | 0 m/s | - | - |
| 1777525617 | 9.44° C | 87% | 1019.9 hPa | 0 mm | 0 m/s | - | - |
| 1777524719 | 10° C | 85% | 1019.9 hPa | 0 mm | 0 m/s | - | - |
| 1777523817 | 10° C | 83% | 1019.7 hPa | 0 mm | 0 m/s | - | - |
| 1777522918 | 10.56° C | 80% | 1019.7 hPa | 0 mm | 0 m/s | - | - |
| 1777522017 | 10.56° C | 77% | 1019.7 hPa | 0 mm | 0 m/s | - | - |
| 1777521118 | 11.11° C | 71% | 1019.7 hPa | 0 mm | 0 m/s | - | - |
| 1777520217 | 11.67° C | 71% | 1019.7 hPa | 0 mm | 0 m/s | - | - |
| 1777519318 | 12.22° C | 69% | 1019.8 hPa | 0 mm | 0 m/s | - | - |
| 1777518417 | 12.22° C | 64% | 1019.7 hPa | 0 mm | 0 m/s | - | - |
| 1777517518 | 12.78° C | 65% | 1019.6 hPa | 0 mm | 0 m/s | - | - |
| 1777516617 | 13.33° C | 57% | 1019.4 hPa | 0 mm | 0 m/s | - | - |
| 1777515719 | 13.33° C | 50% | 1019.2 hPa | 0 mm | 0 m/s | - | - |
| 1777514817 | 13.33° C | 49% | 1018.9 hPa | 0 mm | 0 m/s | - | - |
| 1777513919 | 13.89° C | 52% | 1018.9 hPa | 0 mm | 0 m/s | - | - |
| 1777513017 | 13.89° C | 48% | 1018.8 hPa | 0 mm | 0 m/s | - | - |
| 1777512119 | 13.89° C | 47% | 1018.5 hPa | 0 mm | 1.34 m/s, 278° | - | - |
| 1777511218 | 13.89° C | 45% | 1018.4 hPa | 0 mm | 0.45 m/s, 271° | - | - |
| 1777510319 | 14.44° C | 48% | 1018.2 hPa | 0 mm | 1.34 m/s, 255° | - | - |
| 1777509418 | 14.44° C | 43% | 1018 hPa | 0 mm | 1.34 m/s, 277° | - | - |
| 1777508518 | 14.44° C | 43% | 1017.9 hPa | 0 mm | 3.58 m/s, 278° | - | - |
| 1777507617 | 15° C | 42% | 1017.7 hPa | 0 mm | 0.89 m/s, 298° | - | - |
* Rain latest hour (hover to see other rain measurements)
** Current wind speed in m/s (hover to see current wind gust speed)